Albion, NE

11:22 PM CST on January 19, 2018 (GMT -0600)
Albion Municipal

Weather History for KBVN - May, 2013

Change the Weather History Date:

Wednesday, May 15, 2013

  Actual Average (KOFK) Record (KOFK)
Temperature  
Mean Temperature 69 °F -  
Max Temperature 82 °F 75 °F 96 °F (2001)
Min Temperature 56 °F 47 °F 29 °F (1907)
Cooling Degree Days 4    
Growing Degree Days 19 (Base 50)    
Moisture  
Dew Point 39 °F    
Average Humidity 34    
Maximum Humidity 66    
Minimum Humidity 17    
Precipitation  
Precipitation 0.00 in - - ()
Sea Level Pressure  
Sea Level Pressure 29.89 in    
Wind  
Wind Speed 9 mph (ENE)    
Max Wind Speed 23 mph    
Max Gust Speed 30 mph    
Visibility 10 miles    
Events      
Averages and records for this station are not official NWS values.
T = Trace of Precipitation, MM = Missing Value Source: NWS Daily Summary

Daily Weather History Graph

Daily Weather History Graph

Search for Another Location

Airport or City:

Trip Planner

Search our weather history database for the weather conditions in past years. The results will help you decide how hot, cold, wet, or windy it might be!

Date:

Astronomy

May. 15, 2013 Rise Set
Actual Time 6:12 AM CDT 8:45 PM CDT
Civil Twilight 5:40 AM CDT 9:17 PM CDT
Nautical Twilight 5:00 AM CDT 9:57 PM CDT
Astronomical Twilight 4:16 AM CDT 10:42 PM CDT
Moon 10:50 AM CDT (5/15) 12:32 AM CDT (5/15)
Length of Visible Light 15h 36m
Length of Day
14h 33m
Waxing Crescent, 27% of the Moon is Illuminated
May 15
Waxing Crescent
May 17
First Quarter
May 24
Full
May 31
Last Quarter
Jun 8
New

Hourly Weather History & Observations

Time (CDT) Temp. Dew Point Humidity Pressure Visibility Wind Dir Wind Speed Gust Speed Precip Events Conditions
12:15 AM 65.7 °F 41.0 °F 41% 29.83 in 10.0 mi Calm Calm - N/A   Overcast
12:35 AM 63.9 °F 42.4 °F 46% 29.84 in 10.0 mi Calm Calm - N/A   Mostly Cloudy
12:55 AM 64.6 °F 41.7 °F 43% 29.83 in 10.0 mi Calm Calm - N/A   Scattered Clouds
1:15 AM 63.0 °F 41.2 °F 45% 29.83 in 10.0 mi Calm Calm - N/A   Clear
1:35 AM 62.8 °F 41.9 °F 46% 29.83 in 10.0 mi Calm Calm - N/A   Clear
1:55 AM 61.7 °F 41.0 °F 47% 29.84 in 10.0 mi Calm Calm - N/A   Clear
2:15 AM 61.2 °F 40.5 °F 47% 29.85 in 10.0 mi Calm Calm - N/A   Clear
2:35 AM 56.7 °F 45.5 °F 66% 29.86 in 10.0 mi Calm Calm - N/A   Clear
2:55 AM 59.2 °F 40.8 °F 51% 29.88 in 10.0 mi NNW 6.9 mph - N/A   Clear
3:15 AM 61.7 °F 39.0 °F 43% 29.89 in 10.0 mi North 6.9 mph - N/A   Clear
3:35 AM 63.0 °F 38.5 °F 40% 29.88 in 10.0 mi NNE 5.8 mph - N/A   Clear
3:55 AM 62.2 °F 39.0 °F 42% 29.88 in 10.0 mi NE 4.6 mph - N/A   Clear
4:15 AM 61.7 °F 40.1 °F 45% 29.89 in 10.0 mi North 8.1 mph - N/A   Clear
4:35 AM 61.9 °F 40.1 °F 45% 29.88 in 10.0 mi NE 9.2 mph - N/A   Clear
4:55 AM 60.8 °F 40.8 °F 48% 29.88 in 10.0 mi ENE 4.6 mph - N/A   Clear
5:15 AM 61.3 °F 41.4 °F 48% 29.89 in 10.0 mi East 8.1 mph - N/A   Clear
5:35 AM 62.2 °F 41.4 °F 46% 29.88 in 10.0 mi East 10.4 mph - N/A   Clear
5:55 AM 62.2 °F 42.1 °F 48% 29.88 in 10.0 mi East 11.5 mph - N/A   Clear
6:15 AM 62.6 °F 42.4 °F 48% 29.89 in 10.0 mi ENE 13.8 mph 17.3 mph N/A   Clear
6:35 AM 61.7 °F 43.0 °F 50% 29.92 in 10.0 mi NE 15.0 mph - N/A   Clear
6:55 AM 61.5 °F 43.2 °F 51% 29.92 in 10.0 mi NE 16.1 mph 21.9 mph N/A   Clear
7:15 AM 60.8 °F 43.5 °F 53% 29.94 in 10.0 mi NNE 11.5 mph - N/A   Clear
7:35 AM 61.7 °F 43.9 °F 52% 29.94 in 10.0 mi NE 12.7 mph - N/A   Clear
7:55 AM 63.1 °F 43.7 °F 49% 29.93 in 10.0 mi ENE 19.6 mph - N/A   Clear
8:15 AM 64.4 °F 43.5 °F 47% 29.94 in 10.0 mi NE 16.1 mph 25.3 mph N/A   Clear
8:35 AM 66.0 °F 42.6 °F 43% 29.95 in 10.0 mi ENE 21.9 mph 28.8 mph N/A   Clear
8:55 AM 66.4 °F 41.0 °F 40% 29.95 in 10.0 mi ENE 19.6 mph 29.9 mph N/A   Clear
9:15 AM 66.4 °F 39.4 °F 37% 29.95 in 10.0 mi ENE 23.0 mph 28.8 mph N/A   Clear
9:35 AM 66.9 °F 37.9 °F 34% 29.95 in 10.0 mi East 17.3 mph 25.3 mph N/A   Clear
9:55 AM 67.3 °F 37.0 °F 33% 29.96 in 10.0 mi ENE 18.4 mph 26.5 mph N/A   Clear
10:15 AM 68.0 °F 37.8 °F 33% 29.97 in 10.0 mi ENE 19.6 mph 24.2 mph N/A   Clear
10:35 AM 68.4 °F 37.9 °F 33% 29.96 in 10.0 mi ENE 20.7 mph 27.6 mph N/A   Clear
10:55 AM 69.4 °F 37.6 °F 31% 29.96 in 10.0 mi ENE 21.9 mph 27.6 mph N/A   Clear
11:15 AM 70.0 °F 36.5 °F 29% 29.96 in 10.0 mi ENE 18.4 mph 25.3 mph N/A   Clear
11:35 AM 71.4 °F 35.8 °F 27% 29.95 in 10.0 mi East 20.7 mph 28.8 mph N/A   Clear
11:55 AM 72.1 °F 36.7 °F 27% 29.95 in 10.0 mi East 18.4 mph 26.5 mph N/A   Clear
12:15 PM 73.6 °F 34.9 °F 24% 29.95 in 10.0 mi East 18.4 mph 24.2 mph N/A   Clear
12:35 PM 74.7 °F 35.2 °F 24% 29.95 in 10.0 mi East 18.4 mph 25.3 mph N/A   Clear
12:55 PM 76.5 °F 34.5 °F 22% 29.93 in 10.0 mi East 18.4 mph 25.3 mph N/A   Clear
1:15 PM 77.0 °F 36.0 °F 23% 29.92 in 10.0 mi East 13.8 mph 26.5 mph N/A   Clear
1:35 PM 77.0 °F 36.7 °F 23% 29.91 in 10.0 mi East 13.8 mph 24.2 mph N/A   Clear
1:55 PM 79.3 °F 37.0 °F 22% 29.91 in 10.0 mi ESE 16.1 mph 24.2 mph N/A   Clear
2:15 PM 79.5 °F 37.0 °F 22% 29.91 in 10.0 mi East 13.8 mph 21.9 mph N/A   Clear
2:35 PM 79.5 °F 37.6 °F 22% 29.90 in 10.0 mi East 17.3 mph 25.3 mph N/A   Clear
2:55 PM 80.4 °F 36.7 °F 21% 29.89 in 10.0 mi East 15.0 mph 20.7 mph N/A   Clear
3:15 PM 80.8 °F 37.0 °F 21% 29.89 in 10.0 mi East 16.1 mph 24.2 mph N/A   Clear
3:35 PM 81.5 °F 38.5 °F 22% 29.89 in 10.0 mi East 15.0 mph 18.4 mph N/A   Clear
3:55 PM 81.5 °F 37.2 °F 20% 29.88 in 10.0 mi East 12.7 mph 20.7 mph N/A   Clear
4:15 PM 81.5 °F 37.8 °F 21% 29.87 in 10.0 mi ENE 19.6 mph 23.0 mph N/A   Clear
4:35 PM 81.9 °F 37.9 °F 21% 29.87 in 10.0 mi East 13.8 mph 21.9 mph N/A   Scattered Clouds
4:55 PM 82.4 °F 37.4 °F 20% 29.87 in 10.0 mi East 15.0 mph 23.0 mph N/A   Clear
5:15 PM 82.0 °F 37.0 °F 20% 29.87 in 10.0 mi East 12.7 mph 23.0 mph N/A   Clear
5:35 PM 82.0 °F 37.0 °F 20% 29.86 in 10.0 mi ESE 10.4 mph 21.9 mph N/A   Clear
5:55 PM 81.9 °F 35.4 °F 19% 29.86 in 10.0 mi East 11.5 mph 18.4 mph N/A   Clear
6:15 PM 82.0 °F 33.1 °F 17% 29.86 in 10.0 mi East 11.5 mph 17.3 mph N/A   Clear
6:35 PM 80.2 °F 36.3 °F 21% 29.86 in 10.0 mi East 9.2 mph 16.1 mph N/A   Clear
6:55 PM 79.3 °F 37.8 °F 22% 29.85 in 10.0 mi East 12.7 mph 17.3 mph N/A   Clear
7:15 PM 79.7 °F 38.1 °F 23% 29.85 in 10.0 mi ENE 11.5 mph 17.3 mph N/A   Clear
7:35 PM 79.3 °F 37.8 °F 22% 29.85 in 10.0 mi East 13.8 mph - N/A   Clear
7:55 PM 78.3 °F 37.8 °F 23% 29.85 in 10.0 mi East 10.4 mph - N/A   Clear
8:15 PM 77.0 °F 37.6 °F 24% 29.85 in 10.0 mi East 9.2 mph - N/A   Clear
8:35 PM 73.6 °F 38.8 °F 28% 29.84 in 10.0 mi East 6.9 mph - N/A   Clear
8:55 PM 72.0 °F 38.7 °F 30% 29.85 in 10.0 mi ENE 6.9 mph - N/A   Clear
9:15 PM 69.8 °F 39.0 °F 33% 29.85 in 10.0 mi ENE 6.9 mph - N/A   Scattered Clouds
9:35 PM 69.4 °F 38.3 °F 32% 29.86 in 10.0 mi ENE 6.9 mph - N/A   Mostly Cloudy
9:55 PM 69.3 °F 38.3 °F 32% 29.86 in 10.0 mi ENE 8.1 mph - N/A   Scattered Clouds
10:15 PM 68.4 °F 38.5 °F 33% 29.86 in 10.0 mi ENE 8.1 mph - N/A   Scattered Clouds
10:35 PM 68.0 °F 38.7 °F 34% 29.87 in 10.0 mi ENE 8.1 mph - N/A   Clear
10:55 PM 68.5 °F 38.8 °F 34% 29.88 in 10.0 mi ENE 8.1 mph - N/A   Mostly Cloudy
11:15 PM 68.9 °F 39.2 °F 34% 29.88 in 10.0 mi East 8.1 mph - N/A   Overcast
11:35 PM 68.0 °F 39.4 °F 35% 29.88 in 10.0 mi East 8.1 mph - N/A   Mostly Cloudy
11:55 PM 67.8 °F 39.4 °F 35% 29.89 in 10.0 mi ENE 6.9 mph - N/A   Mostly Cloudy